Regional Weather Roundup
Issued by NWS

Home | Current Version | Previous Version | Text Only | Print | Product List | Glossary Off
Versions: 1 2 3 4 5 6 7 8 9 10 11 12 13 14 15 16 17 18 19 20 21 22 23 24 25 26 27 28 29 30 31 32 33 34 35 36 37 38 39 40 41 42 43 44 45 46 47 48 49 50

000
ASUS43 KLMK 312302
RWRKY
KENTUCKY REGIONAL WEATHER ROUNDUP
NATIONAL WEATHER SERVICE LOUISVILLE KY
700 PM EDT MON AUG 31 2015

NOTE "FAIR" INDICATES FEW OR NO CLOUDS BELOW 12,000 FEET
WITH NO SIGNIFICANT WEATHER AND/OR OBSTRUCTIONS TO VISIBILITY.

KYZ001>023-026-027-061>063-070>075-010000-
WESTERN AND SOUTH CENTRAL KENTUCKY

CITY           SKY/WX    TMP DP  RH WIND       PRES   REMARKS
PADUCAH        SUNNY     85  68  56 SE5       30.04F
HENDERSON      SUNNY     84  66  54 S7        30.04S
OWENSBORO      SUNNY     85  68  56 SW5       30.07R
HOPKINSVILLE   SUNNY     86  66  51 SW7       30.06S
BOWLING GREEN  SUNNY     86  63  45 SE7       30.07S
GLASGOW        SUNNY     83  65  54 CALM      30.08S
$$

KYZ024-025-028>034-038-045-046-053-010000-
NORTH CENTRAL KENTUCKY

CITY           SKY/WX    TMP DP  RH WIND       PRES   REMARKS
LOUISVILLE/SDF MOSUNNY   86  63  45 S9        30.06S
LOUISVILLE/LOU MOSUNNY   86  62  44 S5        30.07S
FORT KNOX      SUNNY     83  65  52 SW6       30.07S
$$

KYZ035>037-039>044-047>052-055>060-089>105-010000-
NORTHEAST KENTUCKY

CITY           SKY/WX    TMP DP  RH WIND       PRES   REMARKS
LEXINGTON      MOSUNNY   84  63  49 NW5       30.09S
COVINGTON      MOSUNNY   84  65  52 SW7       30.07S
FRANKFORT      MOSUNNY   84  61  45 W6        30.08S
$$

KYZ054-064>069-076>088-106>120-010000-
SOUTHEAST KENTUCKY

CITY           SKY/WX    TMP DP  RH WIND       PRES   REMARKS
JACKSON        SUNNY     82  63  52 NW3       30.11S
LONDON         MOSUNNY   82  61  48 NE3       30.10S
SOMERSET       NOT AVBL
MIDDLESBORO    MOSUNNY   82  67  59 CALM      30.10S
MONTICELLO     PTCLDY    85  67  54 CALM      30.12S
$$




USA.gov is the U.S. government's official web portal to all federal, state and local government web resources and services.